This is the latest recevied weather packets stored in our database for station/object OE6PWE-13. If no packets are shown the sender has not sent any weather packets the latest 10 day(s).
| Time | Temp. | Humidity | Pressure | Rain* | Wind** | Luminosity | Snow |
|---|---|---|---|---|---|---|---|
| 1788197412 | 18.33° C | 99% | 1015 hPa | 0 mm | - | - | - |
| 1788196512 | 18.33° C | 99% | 1014 hPa | 0 mm | - | - | - |
| 1788195611 | 18.33° C | 99% | 1014 hPa | 0 mm | - | - | - |
| 1788194711 | 18.89° C | 98% | 1014 hPa | 0 mm | - | - | - |
| 1788193811 | 20° C | 95% | 1014 hPa | 0 mm | - | - | - |
| 1788192911 | 27.22° C | 80% | 1013 hPa | 0 mm | - | - | - |
| 1788192012 | 28.89° C | 45% | 1012 hPa | 0 mm | - | - | - |
| 1788191112 | 30° C | 44% | 1012 hPa | 0 mm | - | - | - |
| 1788190212 | 31.11° C | 41% | 1012 hPa | 0 mm | - | - | - |
| 1788189311 | 33.33° C | 38% | 1012 hPa | 0 mm | - | - | - |
| 1788188412 | 34.44° C | 35% | 1011 hPa | 0 mm | - | - | - |
| 1788187512 | 34.44° C | 35% | 1011 hPa | 0 mm | - | - | - |
| 1788186612 | 33.33° C | 35% | 1011 hPa | 0 mm | - | - | - |
| 1788185712 | 35° C | 37% | 1011 hPa | 0 mm | - | - | - |
| 1788184812 | 35° C | 35% | 1012 hPa | 0 mm | - | - | - |
| 1788183912 | 33.89° C | 28% | 1012 hPa | 0 mm | - | - | - |
| 1788183016 | 32.78° C | 29% | 1012 hPa | 0 mm | - | - | - |
| 1788182112 | 32.78° C | 32% | 1012 hPa | 0 mm | - | - | - |
| 1788180312 | 32.78° C | 32% | 1012 hPa | 0 mm | - | - | - |
| 1788179412 | 33.33° C | 29% | 1012 hPa | 0 mm | - | - | - |
| 1788178512 | 33.89° C | 28% | 1012 hPa | 0 mm | - | - | - |
| 1788177611 | 33.89° C | 27% | 1012 hPa | 0 mm | - | - | - |
| 1788176712 | 33.89° C | 35% | 1012 hPa | 0 mm | - | - | - |
| 1788175812 | 32.78° C | 35% | 1013 hPa | 0 mm | - | - | - |
| 1788174911 | 32.78° C | 38% | 1013 hPa | 0 mm | - | - | - |
* Rain latest hour (hover to see other rain measurements)
** Current wind speed in m/s (hover to see current wind gust speed)